RH
44 46 45 43 40 40 38 39 38 39 43 54 59 62 60 59 59 61 62 62 63 64 65 67 68 68 67 66 70 74 77 78 77 86 80 80 79 77 79 76 76 76 74
51 53 49 43 42 41 42 43 44 46 50 53 60 62 63 65 66 70 72 74 74 76 78 80 83 84 83 81 81 82 84 84 82 81 82 92 74 70 68 70 74 69 69
54 58 57 52 45 44 42 40 40 43 46 60 63 67 68 63 56 52 50 50 52 51 54 53 57 68 85 91 89 88 89 90 87 85 86 98 91 85 66 65 67 68 68
55 57 58 57 50 46 43 42 42 40 40 40 42 44 49 53 52 48 46 45 46 47 46 46 47 48 53 68 91 95 95 95 96 93 90 88 85 92 87 68 70 70 72
57 59 61 55 50 44 44 43 43 44 44 43 43 44 48 50 51 49 47 44 41 40 38 37 37 39 41 46 52 60 92 97 99 98 96 94 96 94 96 92 83 77 77
59 59 56 50 49 47 46 44 44 47 46 48 51 51 53 54 53 53 49 44 41 40 38 37 38 41 44 45 48 50 53 60 82 93 92 93 93 93 96 96 90 86 79
61 60 60 57 50 49 48 48 47 52 52 51 53 54 55 55 54 51 47 45 44 45 44 42 43 48 49 47 49 53 53 57 67 69 82 88 88 88 88 86 86 85 80
61 60 62 56 52 51 51 52 54 55 54 55 57 56 53 50 48 48 49 48 47 49 48 47 52 52 51 50 55 62 64 66 64 69 73 79 85 89 90 92 92 88 80
61 60 60 53 53 52 55 57 55 57 55 54 54 56 54 54 54 51 47 46 45 47 45 49 52 49 46 47 56 64 63 64 70 77 72 72 78 84 86 88 90 92 89
58 61 60 56 55 57 61 58 56 56 54 51 50 55 55 52 49 46 43 42 42 44 42 50 48 49 46 52 58 59 60 65 71 64 70 75 81 84 85 86 87 87 89
58 62 62 57 57 62 64 56 54 53 53 52 53 54 50 47 42 37 31 28 29 33 37 43 43 37 46 58 43 43 59 67 58 67 75 78 85 84 76 70 74 81 86
57 61 63 62 69 70 62 59 57 55 55 51 52 48 45 39 28 22 21 21 27 25 32 38 32 34 39 54 34 39 59 47 63 73 78 87 63 58 60 70 71 84 87
60 64 67 76 77 73 64 58 53 52 48 47 49 43 34 23 21 20 20 19 24 24 28 33 35 37 41 46 31 48 45 50 56 78 72 55 54 56 68 71 74 89 83
60 60 80 87 80 72 62 54 50 48 46 48 41 31 21 20 19 17 19 20 22 26 29 32 34 36 40 32 34 49 50 55 65 52 52 52 51 52 62 73 76 72 66
63 68 91 91 80 66 58 53 50 46 44 36 28 23 20 20 19 20 22 23 25 26 26 27 26 34 33 31 42 45 52 68 54 43 37 39 52 54 49 59 81 77 72
66 90 87 83 75 64 56 51 48 39 36 25 24 22 21 22 23 23 23 24 26 28 29 31 35 37 37 38 44 50 56 54 47 46 52 62 59 56 68 74 73 72 76
89 86 83 75 67 55 52 50 40 25 23 23 23 24 26 26 26 26 26 30 33 35 36 38 40 40 40 42 47 52 51 50 53 56 59 61 63 70 81 73 69 74 74
85 79 71 65 55 52 48 40 25 21 23 24 26 27 29 30 30 31 33 35 38 40 41 42 42 44 44 47 51 52 54 59 61 62 63 66 70 75 66 65 68 73 73
76 67 60 58 50 46 37 26 22 22 25 28 29 30 32 33 34 34 37 39 42 44 45 46 47 49 48 52 54 59 64 66 67 68 70 72 70 69 62 65 74 74 70
62 61 56 51 50 31 25 24 25 26 28 30 31 32 34 35 36 38 42 44 46 49 49 52 52 53 54 56 63 65 67 70 72 81 91 76 67 63 66 66 77 98 96
61 57 56 39 28 26 26 27 27 28 30 32 33 33 35 37 40 44 44 46 51 54 56 55 57 59 62 68 67 66 67 71 85 96 73 73 70 71 66 62 84 90 92
55 48 39 32 29 28 26 28 28 30 32 34 34 37 38 40 44 48 49 52 56 58 57 60 62 68 70 70 68 68 65 69 86 72 77 88 70 62 64 64 64 73 85
45 38 36 32 30 29 29 29 31 33 35 37 38 38 40 44 50 50 52 57 57 59 63 65 71 72 72 74 73 71 77 79 70 76 93 67 64 66 70 72 75 81 86
40 38 32 31 31 30 30 32 34 36 38 40 40 40 45 52 50 55 58 57 61 64 68 72 73 77 78 77 72 89 92 77 80 99 74 67 66 73 75 81 81 85 86
40 34 33 34 33 32 32 33 34 37 39 42 43 46 50 56 60 60 58 59 63 69 72 72 73 78 78 75 72 78 70 77 99 68 75 72 76 80 78 79 80 84 85
35 34 35 34 33 34 34 33 34 38 42 47 50 53 60 62 62 62 62 66 70 70 69 70 70 69 68 67 72 68 70 80 64 70 77 80 80 84 84 82 85 89 89
Wind_Speed
4 12 17 20 21 21 17 17 15 12 9 19 22 23 28 29 29 29 28 29 29 30 30 32 35 37 38 41 37 35 33 31 32 23 24 28 35 39 39 39 40 41 44
6 9 18 22 23 23 22 23 22 22 12 4 11 8 4 6 10 11 13 14 17 18 21 24 27 30 32 34 34 32 26 25 25 15 13 5 12 24 31 34 37 39 39
6 6 9 19 24 26 26 27 28 26 24 15 5 4 5 11 15 17 16 16 15 15 15 15 16 18 20 27 29 29 28 25 26 27 13 4 6 2 20 26 30 33 34
5 4 7 14 21 22 26 29 31 31 30 27 28 27 24 20 18 18 18 18 18 18 19 19 20 19 20 20 23 25 27 27 22 21 25 33 28 8 10 20 24 30 35
7 6 6 13 17 21 24 26 28 29 27 27 26 25 23 19 19 19 19 20 19 20 23 25 25 25 25 24 23 24 23 22 23 23 24 24 25 27 10 15 9 26 31
7 5 9 13 15 17 21 23 26 26 25 25 25 24 23 21 22 22 23 23 23 23 24 25 25 26 27 27 26 25 25 24 23 24 25 25 14 11 9 10 12 14 27
7 6 6 8 13 16 18 20 22 23 21 22 22 21 20 19 19 19 20 22 24 25 26 27 26 26 26 27 27 27 26 26 24 25 23 22 22 24 23 17 13 12 22
6 6 6 8 11 13 15 18 19 20 19 19 19 18 17 17 18 18 20 21 22 23 25 27 27 28 29 30 30 30 29 27 29 27 28 26 23 22 22 21 13 14 13
7 7 7 9 11 13 15 15 17 17 17 16 15 15 16 16 17 18 19 21 23 23 25 25 26 28 29 29 29 27 28 29 28 26 26 27 25 25 24 24 23 11 14
7 6 6 9 11 16 16 15 15 15 14 13 13 14 15 16 18 20 22 23 24 25 26 26 27 27 28 27 28 28 29 27 24 26 28 28 24 24 23 23 24 24 16
7 7 6 10 15 15 14 13 12 12 11 11 12 13 15 18 20 22 23 24 25 26 27 27 26 28 28 27 30 30 26 25 29 29 27 28 25 22 24 25 24 24 22
7 6 8 14 15 14 12 11 10 11 11 12 11 13 15 19 22 24 25 26 27 27 27 27 28 28 28 26 30 31 24 29 28 30 29 25 25 27 26 24 28 26 26
7 6 7 9 13 12 10 9 10 10 10 10 11 15 19 21 22 24 26 27 27 28 29 29 28 28 28 28 31 23 30 29 30 26 26 29 27 27 26 27 28 26 23
7 6 7 8 11 10 8 8 8 8 10 11 14 18 20 21 22 24 25 27 27 28 29 29 28 27 27 29 26 30 31 31 25 26 26 27 26 28 31 29 27 24 28
7 7 6 5 9 8 6 7 9 12 11 12 14 16 18 20 22 24 25 27 28 30 31 33 34 31 31 26 32 32 31 25 29 29 30 29 29 30 31 31 28 31 28
6 7 6 7 6 5 7 8 9 10 9 12 15 18 20 22 24 26 28 29 31 31 33 32 31 30 28 30 31 31 30 30 31 32 31 30 32 30 33 30 34 35 31
7 7 7 7 6 6 5 8 8 10 10 12 15 18 21 24 26 27 28 29 30 30 30 29 28 29 31 30 32 31 32 31 31 30 32 34 31 33 32 37 39 36 33
7 7 8 8 6 5 6 6 8 10 10 13 17 20 23 24 26 27 28 29 28 27 28 28 28 31 31 31 32 32 33 31 30 30 33 33 32 32 38 40 38 36 37
8 10 9 8 6 5 4 4 6 9 11 15 18 20 22 24 27 27 29 30 29 27 27 26 29 29 32 31 31 34 32 30 31 31 29 31 34 34 40 40 36 38 40
12 11 9 7 4 3 2 3 6 9 14 16 18 19 21 24 26 25 27 28 26 26 27 28 26 28 30 29 32 33 30 30 29 28 27 32 36 41 41 42 38 31 30
9 8 6 6 6 3 2 4 8 13 15 17 19 20 22 24 23 24 26 29 28 26 25 27 28 27 26 30 32 32 33 29 29 27 32 33 38 42 45 42 34 32 39
7 6 6 5 4 2 5 9 12 15 16 18 20 21 23 22 23 24 28 26 25 24 26 26 28 26 27 29 32 33 34 35 32 32 32 33 42 45 42 39 37 38 38
7 4 3 3 2 6 10 12 13 16 18 19 21 24 24 23 21 26 28 25 22 22 22 23 25 27 29 29 30 33 33 35 36 34 32 39 41 39 36 36 37 34 31
5 2 1 4 7 8 10 11 14 16 18 21 24 26 24 24 26 26 22 21 21 21 22 23 25 26 27 26 29 29 31 32 34 27 31 36 36 31 34 32 31 31 30
3 2 3 4 6 10 12 14 16 18 20 22 25 25 25 24 26 22 23 23 23 22 26 26 27 26 25 28 36 37 36 35 34 37 29 30 28 29 30 30 31 31 31
2 1 2 6 9 12 15 16 17 18 20 23 21 23 21 23 23 24 27 23 22 26 27 27 27 29 30 34 35 36 36 36 36 29 25 25 26 26 28 29 30 30 32
Wind_Direction
29 47 51 53 57 52 50 47 40 24 244 234 236 242 247 253 257 264 273 278 280 281 282 282 283 282 278 279 276 276 273 270 273 269 271 266 270 269 265 264 263 264 267
48 33 48 56 57 55 56 54 52 47 45 256 256 257 293 286 291 304 310 305 302 304 303 301 300 300 293 291 286 277 269 264 266 253 269 279 272 265 268 266 261 266 268
85 54 51 61 64 62 63 64 62 61 60 64 86 73 76 62 46 37 36 35 34 29 21 10 355 337 318 297 293 284 272 268 271 259 242 272 257 284 272 269 267 264 263
89 75 65 63 67 70 73 71 69 67 66 69 72 72 70 67 57 55 50 46 40 28 21 15 10 4 359 348 325 310 287 272 266 274 254 249 261 273 280 258 262 266 255
123 103 87 86 80 77 74 75 72 68 65 65 66 69 68 65 55 43 35 28 23 19 14 10 6 4 0 355 349 343 328 299 277 272 273 268 257 257 264 280 266 262 261
133 121 102 94 84 81 76 73 71 66 63 65 64 61 57 49 42 33 27 19 15 11 8 2 359 356 354 352 348 342 337 333 320 307 301 295 293 291 277 269 263 258 263
148 147 121 100 91 80 79 77 71 64 62 62 60 58 56 50 45 35 26 17 9 4 359 356 353 351 347 345 342 338 335 333 328 322 311 305 300 300 298 296 295 292 292
171 163 146 122 97 89 89 83 75 71 65 62 59 52 47 44 37 27 18 13 5 358 352 352 352 351 348 346 344 340 335 332 329 326 324 320 310 304 300 295 298 299 295
173 164 153 123 105 103 102 93 82 71 61 57 50 45 39 33 26 17 12 6 2 357 353 353 350 348 344 343 341 334 330 329 329 329 326 320 316 316 315 311 307 302 300
161 157 153 130 116 117 107 90 78 72 64 53 44 38 32 23 15 9 8 5 1 359 356 353 349 345 343 343 340 330 326 328 330 324 321 316 316 320 321 319 313 306 299
169 161 148 133 127 119 108 92 78 67 55 45 35 31 24 16 11 10 7 5 360 357 355 350 346 343 340 341 337 330 326 328 325 322 318 312 314 320 318 315 310 304 302
167 163 144 140 130 114 101 85 70 57 46 34 31 27 18 13 11 7 3 0 358 354 351 348 344 343 340 334 333 327 333 328 322 318 316 315 327 319 316 318 311 303 299
155 139 125 124 122 114 102 80 59 49 35 25 30 23 18 13 8 3 360 357 355 352 350 347 344 340 337 331 331 327 330 326 321 320 319 323 323 317 316 316 305 302 309
156 128 114 119 122 112 95 70 51 37 28 32 25 20 13 6 2 359 356 354 352 350 348 344 340 337 333 331 331 328 327 325 329 326 324 318 316 317 313 308 304 317 316
130 132 131 120 112 107 87 53 39 28 25 26 23 14 5 2 359 357 354 351 350 348 347 342 340 337 333 330 328 326 327 327 327 322 319 315 313 312 310 307 312 316 310
125 118 108 110 119 82 55 40 37 33 28 23 15 5 360 357 356 354 351 349 347 346 343 338 333 327 327 323 325 326 326 327 326 323 323 321 318 318 316 310 308 306 307
144 136 137 123 99 75 52 40 35 24 17 9 4 360 357 354 352 349 348 346 342 340 335 330 327 325 322 323 324 325 325 323 321 318 317 314 317 318 315 313 311 308 304
129 130 131 122 106 86 59 48 25 12 0 1 0 358 354 350 347 345 344 341 337 333 328 325 323 320 319 323 324 323 323 319 315 312 309 308 311 315 314 313 311 308 306
139 137 129 130 118 67 47 42 11 359 354 357 355 351 348 345 343 342 339 337 331 326 321 320 317 316 316 322 324 325 322 316 312 310 309 309 311 313 315 312 309 307 302
141 138 127 113 91 103 89 21 22 356 352 348 344 343 343 341 337 335 333 328 324 318 318 314 314 314 314 323 324 324 320 314 314 313 310 314 316 316 315 316 312 303 303
117 113 119 133 138 112 34 21 5 355 344 337 336 338 338 335 333 328 331 328 323 317 315 315 317 318 319 320 323 323 320 318 318 319 317 315 317 316 318 316 316 306 309
120 132 143 134 106 56 8 7 356 342 334 333 332 331 332 332 329 326 327 325 321 319 318 317 316 317 319 320 321 322 322 321 324 315 313 311 319 318 318 318 314 314 317
134 124 139 127 56 20 8 350 337 333 331 329 329 329 330 330 329 328 325 319 318 315 310 313 312 317 320 319 319 320 321 323 319 313 314 323 321 319 320 318 319 319 314
145 153 67 15 360 350 343 334 329 331 328 326 327 330 330 328 325 322 315 313 310 311 312 312 315 315 316 317 317 319 323 321 317 316 328 327 320 320 319 320 318 314 316
128 43 18 343 330 327 326 333 335 333 326 326 327 329 329 322 315 314 316 316 313 311 311 313 314 316 315 316 321 326 323 322 325 331 332 326 325 324 324 320 317 317 318
147 294 316 321 324 324 325 330 333 330 326 324 325 323 314 315 315 315 315 316 312 313 312 314 315 316 315 318 325 325 323 326 331 333 326 322 324 323 321 318 317 319 320